Weather Roundup
Issued by NWS Chicago, IL

Home | Current Version | Previous Version | Graphics & Text | Print | Product List | Glossary On
Versions: 1 2 3 4 5 6 7 8 9 10 11 12 13 14 15 16 17 18 19 20 21 22 23 24 25 26 27 28 29 30 31 32 33 34 35 36 37 38 39 40 41 42 43 44 45 46 47 48 49 50
000
NZUS59 KLOT 190803
HRRLOT

CHICAGO AREA WEATHER ROUNDUP
NATIONAL WEATHER SERVICE CHICAGO/ROMEOVILLE IL
300 AM CDT THU APR 19 2018

NOTE: "FAIR" INDICATES FEW OR NO CLOUDS BELOW 12,000 FEET WITH NO
SIGNIFICANT WEATHER AND/OR OBSTRUCTIONS TO VISIBILITY.

* THESE STATIONS ARE NOT UNDER NWS QUALITY CONTROL. THEY ALSO MAY NOT
  REPORT WEATHER SUCH AS PRECIPITATION OR FOG.

ILZ005-006-012>014-019>023-190900-
NORTHEAST ILLINOIS

CITY           SKY/WX    TMP DP  RH WIND       PRES   REMARKS
OHARE          FLURRIES  33  33 100 NE13      30.04R WCI  24
MIDWAY         LGT SNOW  35  34  96 N12       30.03R FOG     WCI  27
AURORA         CLOUDY    34  32  92 N13       30.05R WCI  25
LANSING*       LGT RAIN  34  34 100 N10       30.02R WCI  26
JOLIET*        CLOUDY    35  34  96 N8        30.05R WCI  28
WAUKEGAN       CLOUDY    35  33  92 N9        30.05R WCI  28
DUPAGE AIRPORT CLOUDY    33  33 100 N12       30.04R FOG     WCI  24
WHEELING       CLOUDY    35  33  92 N8        30.06R FOG     WCI  29
KANKAKEE*      LGT RAIN  33  32  96 NW12      30.03R WCI  24
MORRIS*        CLOUDY    33  32  96 N7        30.04R WCI  27
LEWIS AIRPORT* DRIZZLE   33  32  96 N10       30.04R WCI  25
NORTHERLY ISL    N/A     35  33  92 MISG        N/A
$$

WIZ051-052-058>065-066-070>072-190900-
SOUTHEAST WISCONSIN

CITY           SKY/WX    TMP DP  RH WIND       PRES   REMARKS
MILWAUKEE        N/A     34  27  75 NW9       30.07R WCI  27
KENOSHA*       SLEET     35  30  82 N10       30.06R WCI  27
RACINE*          N/A     35  30  82 N13       30.08R WCI  26
BURLINGTON     MOCLDY    32  27  82 N6        30.08R WCI  27
WAUKESHA         N/A     28  25  86 NW6       30.09R WCI  22
WEST BEND        N/A     28  23  80 NW5       30.08R WCI  23
$$

INZ001>003-010>013-019-020-190900-
NORTHWEST INDIANA

CITY           SKY/WX    TMP DP  RH WIND       PRES   REMARKS
GARY*          LGT RAIN  37  35  94 N15G26    30.02R
MICHIGAN CITY* NOT AVBL
RENSSELAER*    NOT AVBL
VALPARAISO     LGT SNOW  35  33  92 N10       29.99R FOG     WCI  27
$$

LMZ740>746-190900-
SOUTHERN LAKE MICHIGAN

STATION/POSITION TIME  SKY/WX   TEMP WIND        PRES    VSBY
                                AIR  DIR/SP/G
                 (UTC)          (F)  (DEG/KT/KT) (MB)    (MI)
HARRISON CRIB    0740            36   10/ 19/ 21   N/A
BURNHAM HARBOR   0800            35   10/ 14/ 16   N/A
CALUMET HARBOR   0730            35  350/ 16/ 20 1015.9R
BURNS HARBOR     0740            36   20/ 26/ 30 1015.9R
MICHIGAN CITY    0740            35   10/ 26/ 28   N/A
$$

ABBREVIATIONS USED IN REMARKS
   TC - TEMPERATURE IN CELSIUS
  WCI - WIND CHILL INDEX
   HX - HEAT INDEX
  VSB - VISIBILITY
$$




USA.gov is the U.S. government's official web portal to all federal, state and local government web resources and services.